Probability
0 0 0 0 0 0 0 0 0 0 0 0 0 0 0 0 0 0 0 0 0 0 0 0 0 0 0 0 0 0 0 0 0 0 0 0 0 0 0 0 0 0 0
0 0 0 0 0 0 0 0 0 0 0 0 0 0 0 0 0 0 0 0 0 0 0 0 0 0 0 0 0 0 0 0 0 0 0 0 0 0 0 0 0 0 0
0 0 0 0 0 0 0 0 0 0 0 0 0 0 0 0 0 0 0 0 0 0 0 0 0 0 0 0 0 0 0 0 0 0 0 0 0 0 0 0 0 0 0
0 0 0 0 0 0 0 0 0 0 0 0 0 0 0 0 0 0 0 0 0 0 0 0 0 0 0 0 0 0 0 0 0 0 0 0 0 0 0 0 0 0 0
0 0 0 0 0 0 0 0 0 0 0 0 0 0 0 0 0 0 0 0 0 0 0 0 0 0 0 0 0 0 0 0 0 0 0 0 0 0 0 0 0 0 0
0 0 0 0 0 0 0 0 0 0 0 0 0 0 0 0 0 0 0 0 0 0 0 0 0 0 0 0 0 0 0 0 0 0 0 0 0 0 0 0 1 1 0
0 0 0 0 0 0 0 0 0 0 0 0 0 0 0 0 0 0 0 0 0 0 0 0 0 0 0 0 0 0 0 0 0 0 0 0 0 0 0 0 1 1 1
0 0 0 0 0 0 0 0 0 0 0 0 0 0 0 0 0 0 0 0 0 0 0 0 0 0 0 0 0 0 0 0 0 0 0 0 0 0 0 0 1 1 0
0 0 0 0 0 0 0 0 0 0 0 0 0 0 0 0 0 0 0 0 0 0 0 0 0 0 0 0 0 0 0 0 0 0 0 0 0 0 0 0 0 0 0
0 0 0 0 0 0 0 0 0 0 0 0 0 0 0 0 0 0 0 0 0 0 0 0 0 0 0 0 0 0 0 0 0 0 0 0 0 0 0 1 1 1 0
0 0 0 0 0 0 0 0 0 0 0 0 0 0 0 0 0 0 0 0 0 0 0 0 0 0 0 0 0 0 0 0 0 0 0 0 0 0 0 1 1 1 0
0 0 0 0 0 0 0 0 0 0 0 0 0 0 0 0 0 0 0 0 0 0 0 0 0 0 0 0 0 0 0 0 0 0 0 0 0 0 0 0 0 0 0
0 0 0 0 0 0 0 0 0 0 0 0 0 0 0 0 0 0 0 0 0 0 0 0 0 0 0 0 0 0 0 0 0 0 0 0 0 0 0 0 0 0 0
0 0 0 0 0 0 0 0 0 0 0 0 0 0 0 0 0 0 0 0 0 0 0 0 0 0 0 0 0 0 0 0 0 0 0 0 0 0 0 0 0 0 0
0 0 0 0 0 0 0 0 0 0 0 0 0 0 0 0 0 0 0 0 0 0 0 0 0 0 0 0 0 0 0 0 0 0 0 0 0 0 0 0 0 0 0
0 0 0 0 0 0 0 0 0 0 0 0 0 0 0 0 0 0 0 0 0 0 0 0 0 0 0 0 0 0 0 0 0 0 0 0 0 0 0 0 0 0 0
0 0 0 0 0 0 0 0 0 0 0 0 0 0 0 0 0 0 0 0 0 0 0 0 0 0 0 0 0 0 0 0 0 0 0 0 0 0 0 0 0 0 0
0 0 0 0 0 0 0 0 0 0 0 0 0 0 0 0 0 0 0 0 0 0 0 0 0 0 0 0 0 0 0 0 0 0 0 0 0 0 0 0 0 0 0
0 0 0 0 0 0 0 0 0 0 0 0 0 0 0 0 1 0 0 0 0 0 0 0 0 0 0 0 0 0 0 0 0 0 0 0 0 0 0 0 0 0 0
0 0 0 0 0 0 0 0 0 0 0 0 0 0 0 0 0 0 0 0 0 0 0 0 0 0 0 0 0 0 0 0 0 0 0 0 0 0 0 0 0 0 0
0 0 0 0 0 0 0 0 0 0 0 0 0 0 0 0 0 0 0 0 0 0 0 0 0 0 0 0 0 0 0 0 0 0 0 0 0 0 0 0 0 0 0
0 0 0 0 0 0 0 0 0 0 0 0 0 0 0 0 0 0 0 0 0 1 1 0 0 0 0 0 0 0 0 0 0 0 0 0 0 0 0 0 0 0 0
0 0 0 0 0 0 0 0 0 0 0 0 0 0 0 0 0 0 0 0 0 0 1 1 0 0 0 0 0 0 0 0 0 0 0 0 0 0 0 0 0 0 0
0 0 0 0 0 0 0 0 0 0 0 0 0 0 0 0 0 0 0 0 0 0 0 0 0 0 0 0 0 0 0 0 0 0 0 0 0 0 0 0 0 0 0
0 0 0 0 0 0 0 0 0 0 0 0 0 0 0 0 0 0 0 0 0 0 0 0 0 0 0 0 0 0 0 0 0 0 0 0 0 0 0 0 0 0 0
0 0 0 0 0 0 0 0 0 0 0 0 0 0 0 0 0 0 0 0 0 0 0 0 0 0 0 0 0 0 0 0 0 0 0 0 0 0 0 0 0 0 0
Wind_Speed
4 4 3 3 3 2 3 2 2 3 3 3 3 3 4 4 4 4 3 7 9 11 12 12 11 10 10 9 9 9 9 8 7 7 7 6 5 5 4 4 3 3 2
5 5 4 4 4 4 4 3 4 3 3 3 4 4 5 5 5 5 4 6 10 12 13 14 14 14 13 12 11 11 10 10 9 9 9 9 8 7 7 6 6 5 4
6 6 5 5 5 4 4 3 3 3 3 3 5 5 5 5 5 6 6 5 5 9 13 16 16 16 16 15 14 13 12 12 11 11 11 11 10 10 9 9 8 7 7
8 6 6 6 5 4 4 4 4 3 4 4 4 5 4 5 7 7 6 6 6 6 9 15 17 17 18 17 16 15 14 14 14 13 12 13 13 12 12 11 11 10 10
9 7 6 5 5 5 5 5 5 4 4 5 5 5 5 6 7 7 8 8 8 7 6 10 14 15 18 19 18 17 17 16 15 15 14 14 14 14 14 13 13 13 12
9 8 6 6 6 5 6 5 6 5 4 4 4 6 7 7 7 8 9 8 7 8 8 7 7 9 15 19 19 19 19 18 17 16 16 16 16 16 16 16 15 15 15
10 9 7 7 7 7 7 7 6 6 5 3 3 5 6 7 9 8 7 7 8 7 7 8 7 6 6 15 19 20 20 20 20 19 18 18 17 18 18 18 17 17 17
11 9 10 8 8 7 8 8 7 5 4 5 3 2 5 5 4 6 6 7 7 5 7 8 7 8 7 6 11 19 21 21 21 21 20 19 19 19 19 19 19 18 18
11 11 11 9 8 9 8 9 9 9 7 5 6 5 4 5 4 4 4 5 5 5 6 5 8 8 8 7 7 14 18 21 22 22 21 20 20 20 20 20 20 20 19
10 11 10 10 10 9 9 9 9 8 8 7 5 7 7 4 3 5 4 3 5 6 6 6 7 8 8 8 9 13 16 18 20 20 21 21 21 21 21 21 21 21 20
9 10 10 10 10 10 10 9 9 10 9 9 7 5 7 7 7 7 9 5 4 5 6 7 7 7 8 8 8 12 16 18 18 19 19 20 21 22 22 22 22 22 22
6 9 10 10 10 10 10 10 10 11 10 10 9 7 6 6 6 8 10 9 8 5 6 6 7 7 7 8 10 14 16 18 18 19 19 19 20 20 22 23 23 22 22
6 8 9 9 9 10 10 9 10 11 11 11 11 9 9 9 6 7 9 9 9 6 5 5 7 7 7 7 8 14 15 17 19 19 19 19 19 20 20 21 22 22 21
6 6 7 8 9 9 9 9 9 10 9 11 12 12 9 9 8 8 8 8 10 8 6 7 5 7 7 7 10 14 10 16 18 19 19 19 20 20 20 21 22 21 21
4 4 5 7 8 8 9 9 8 10 9 10 10 11 10 9 8 8 8 8 10 11 10 6 5 6 7 6 10 8 9 14 17 18 18 19 19 20 20 21 22 22 22
3 3 4 5 6 7 7 8 8 8 9 10 8 10 11 8 7 7 8 8 9 11 13 6 5 5 6 6 9 9 10 14 16 17 17 18 19 19 20 21 21 22 22
3 3 4 5 6 6 6 7 8 7 9 9 9 10 11 9 8 7 7 8 8 9 14 11 5 5 7 8 7 8 8 9 9 15 17 18 18 19 19 20 20 21 21
2 3 3 3 4 4 5 6 7 7 8 9 9 9 10 8 10 8 8 9 9 9 11 15 8 5 7 7 7 8 7 7 8 12 16 17 18 18 19 19 20 20 19
1 1 2 3 4 4 4 5 6 7 7 8 8 9 9 8 10 8 8 9 8 8 9 11 11 6 5 4 6 6 7 7 7 9 13 16 17 18 18 19 19 19 18
1 2 2 3 3 4 4 4 5 6 7 7 7 8 8 8 9 9 8 9 8 8 8 9 10 7 5 4 4 5 6 6 7 6 10 11 13 15 17 18 18 18 18
1 2 2 2 3 3 3 4 4 5 6 7 7 7 7 7 9 9 7 8 8 8 8 8 9 8 6 3 5 4 7 6 6 5 6 7 7 8 9 13 16 17 19
1 1 2 2 3 3 5 5 5 5 5 6 7 7 7 7 7 10 11 12 11 10 10 9 9 9 9 7 6 5 5 5 7 4 5 7 5 8 7 8 13 18 19
2 2 2 2 2 4 6 6 5 5 5 6 6 6 6 5 6 7 9 11 11 13 13 11 11 11 9 7 6 7 7 8 9 4 4 7 5 8 7 8 15 18 19
1 2 2 3 3 5 7 7 6 4 4 5 5 5 5 6 6 7 7 8 8 8 9 9 10 11 10 8 7 9 9 9 7 4 5 7 5 6 6 6 13 17 19
2 2 2 3 3 5 7 8 7 3 3 4 5 5 5 6 8 9 8 8 9 8 8 10 12 13 14 13 9 6 5 5 7 6 5 5 4 4 4 6 8 14 17
2 2 2 3 3 4 7 9 8 3 3 4 4 4 5 6 9 9 7 8 10 9 8 8 8 10 10 10 10 8 7 6 5 6 4 4 3 2 4 4 4 5 8
Wind_Direction
190 192 196 198 201 195 199 210 221 234 246 253 253 248 251 250 249 248 258 265 268 268 267 267 266 260 256 254 254 256 256 250 244 238 233 232 232 228 226 227 224 213 201
193 193 200 203 208 205 204 207 218 230 244 249 258 254 252 253 252 250 248 259 262 263 264 266 267 264 260 258 254 254 255 252 246 240 234 232 231 230 228 228 226 219 212
198 198 202 209 211 206 207 213 224 232 248 250 257 257 254 251 252 251 248 246 253 257 258 261 265 265 262 260 258 255 254 251 247 245 238 234 232 231 229 228 226 220 220
202 200 207 214 206 200 205 215 220 231 242 247 256 258 253 252 252 251 248 245 242 246 251 255 259 261 262 260 259 257 255 252 248 246 241 237 235 233 231 229 226 224 223
205 206 212 212 197 202 211 217 219 219 239 246 253 260 256 253 253 251 249 245 241 241 241 252 252 252 256 259 258 258 256 254 251 247 242 239 237 234 233 231 229 227 226
206 209 215 210 198 208 216 216 224 220 231 243 261 267 262 255 252 249 250 249 243 240 238 240 244 246 248 253 256 257 257 254 252 249 244 241 238 236 233 231 230 230 229
206 210 216 211 206 215 220 215 217 224 230 203 255 280 270 249 247 248 244 244 246 242 236 236 236 237 245 249 252 253 254 254 252 250 246 243 241 239 236 234 233 232 230
208 211 216 216 210 216 220 217 213 220 220 185 199 268 300 305 271 246 241 239 244 239 238 237 234 235 236 237 246 249 251 252 253 251 249 245 243 241 239 237 235 234 233
211 214 216 217 215 215 225 222 216 220 230 209 198 204 236 264 303 284 245 240 239 236 241 239 237 236 236 235 241 247 248 250 252 253 251 247 245 244 243 239 237 235 234
214 216 217 217 220 221 227 225 218 222 225 231 212 217 225 219 261 299 284 249 238 237 239 239 239 238 235 236 237 237 239 243 247 250 251 250 247 245 244 242 240 236 235
213 216 218 220 223 225 228 225 220 220 223 230 222 209 224 233 229 252 279 281 262 237 233 234 235 237 235 234 237 238 238 239 241 243 244 246 247 246 245 244 243 239 236
215 218 220 223 227 228 229 229 226 225 226 229 229 222 214 221 220 230 255 271 275 260 235 229 232 235 234 232 236 239 239 240 241 241 240 241 242 243 244 245 244 243 239
219 223 219 225 229 232 233 229 229 230 227 228 230 232 230 233 227 230 249 265 271 273 254 236 228 231 232 231 236 238 241 242 242 242 240 238 238 239 240 242 242 241 240
227 225 219 226 230 232 233 231 232 234 233 232 234 233 236 236 231 231 238 255 273 274 254 249 231 224 228 228 236 236 241 240 242 242 240 238 237 236 236 237 238 239 237
231 223 222 229 232 232 233 233 236 236 234 235 238 237 238 240 236 236 236 236 253 274 274 251 238 225 224 225 233 232 235 239 239 240 240 238 237 236 235 235 235 235 236
232 228 228 232 237 237 235 234 240 241 239 239 237 239 240 241 241 237 238 239 239 254 270 261 237 229 223 227 231 231 235 239 238 238 238 237 236 236 236 235 234 234 235
231 234 238 239 240 243 242 240 242 244 245 248 244 243 245 242 242 241 240 240 243 246 263 271 251 240 229 234 237 234 237 239 241 237 236 236 235 234 235 235 234 233 234
242 246 250 251 252 251 250 249 253 250 248 251 251 249 251 249 248 247 245 244 244 241 253 269 270 251 240 236 236 236 237 238 241 240 237 237 235 234 232 232 232 231 230
250 266 260 256 259 261 261 259 258 258 254 254 254 254 256 252 253 253 252 253 253 252 250 261 269 257 249 237 241 244 242 243 244 245 242 239 237 235 233 231 230 228 227
244 258 262 266 267 265 264 265 262 262 264 264 261 258 259 258 258 257 256 257 258 259 256 260 267 268 257 246 234 246 255 241 245 244 245 241 239 235 234 232 230 228 226
259 263 264 276 279 275 277 275 267 267 269 271 271 266 264 261 264 261 261 263 262 262 262 262 265 268 260 251 245 239 252 260 253 232 242 240 237 237 231 232 230 229 228
327 302 282 280 285 294 312 305 291 278 276 275 277 277 274 264 266 267 263 260 257 260 263 262 264 264 266 255 251 246 254 265 267 226 231 250 226 240 235 229 229 226 227
357 344 328 321 320 332 338 328 305 281 280 280 280 282 285 292 286 280 278 273 265 261 258 262 268 268 270 267 261 258 251 250 255 240 226 258 230 242 238 233 231 227 226
7 354 351 344 338 340 345 338 330 303 295 299 300 298 295 300 303 300 294 288 281 274 270 265 267 273 275 274 259 255 255 259 265 242 206 250 244 243 242 233 232 228 227
16 1 352 354 350 341 349 347 340 318 311 310 310 309 303 301 309 307 296 291 289 285 286 275 273 277 281 278 268 264 260 263 272 261 208 229 244 255 256 246 237 230 227
18 7 5 2 356 344 354 356 351 333 325 318 317 315 311 310 315 315 299 295 294 296 301 300 290 286 281 277 265 246 242 249 265 266 213 212 240 243 271 250 236 230 228